Theta_e
346 347 346 341 338 336 333 336 335 336 336 333 332 331 329 327 332 336 338 338 336 333 333 334 336 337 338 337 336 335 333 331 329 330 329 329 330 331 333 332 329 327 325 325 329 331 331 329 329 328 322 318 315 314 314 314 316 317 316 316 316 316 317 316 314 313 311 311 312 311 310 309 311 311 312 312 313 314 316 323 322 313 305 305 305
347 347 346 341 340 337 334 335 335 337 336 335 333 332 331 328 331 335 337 337 335 333 333 335 337 338 337 336 335 332 330 329 328 330 330 329 328 327 329 333 333 331 327 323 323 326 327 327 326 324 320 316 315 314 314 314 315 315 315 315 315 315 316 316 314 314 311 310 309 309 309 309 310 310 311 312 312 314 313 315 316 310 305 305 304
346 347 345 341 340 338 335 335 335 337 336 335 333 332 332 329 331 334 337 335 335 334 335 336 339 338 336 334 331 329 327 324 325 329 330 330 329 325 323 330 334 335 333 326 320 321 323 324 323 322 318 315 315 315 314 313 314 314 314 315 315 314 315 315 315 314 313 312 310 311 311 309 310 310 310 311 312 313 313 312 309 307 306 306 305
346 346 344 341 340 339 336 336 336 337 337 336 333 333 331 330 331 334 335 335 335 335 335 338 338 336 333 331 327 323 321 319 321 329 332 331 329 325 321 326 334 334 334 329 321 319 320 321 323 321 317 315 315 314 314 313 314 314 314 314 314 315 315 315 315 314 314 312 315 323 322 316 310 309 310 310 312 312 313 312 309 307 306 307 306
346 346 344 341 340 340 338 337 336 337 337 336 333 332 332 331 331 333 335 335 336 335 336 337 336 333 329 325 320 316 315 314 315 322 328 329 328 326 323 324 329 329 328 326 321 319 318 319 321 321 317 315 315 314 314 314 313 313 314 314 314 315 315 315 315 315 316 315 322 331 330 322 314 309 311 310 312 311 312 313 311 308 306 307 306
346 346 343 339 339 340 339 339 338 337 337 337 333 332 332 331 330 331 332 334 334 334 334 332 330 326 321 317 315 313 313 312 311 314 319 324 326 328 325 323 326 325 323 322 319 317 316 317 319 320 318 315 315 313 313 313 313 314 314 313 314 314 315 315 315 316 315 318 327 333 333 329 319 309 310 310 310 311 311 312 312 309 307 307 308
346 345 343 339 338 339 339 339 339 338 337 337 334 333 333 332 331 330 330 330 331 330 328 325 322 319 316 316 316 315 314 314 313 314 316 320 325 328 327 328 330 327 326 324 319 316 317 317 318 319 317 315 314 314 313 313 313 314 314 314 314 313 315 314 314 316 316 325 332 334 333 330 322 311 308 309 310 311 311 312 312 310 308 307 310
345 344 343 340 338 338 338 338 339 338 337 337 334 332 333 332 332 331 330 329 328 328 325 322 319 317 318 320 319 318 316 315 315 317 318 319 322 326 330 333 334 332 333 330 322 317 317 318 317 316 317 316 314 314 313 314 314 314 314 313 314 314 313 313 315 314 317 326 331 334 333 329 322 313 309 308 310 311 310 311 312 312 310 307 309
344 344 344 342 338 336 336 338 338 338 337 336 334 332 333 333 332 332 332 331 330 328 325 322 321 322 324 326 327 326 325 322 319 320 322 323 323 326 331 335 337 336 336 335 327 319 319 319 318 316 316 316 314 314 313 314 314 314 314 314 314 313 313 314 313 314 322 326 327 332 334 333 326 313 310 309 308 310 310 311 311 312 311 309 309
344 343 343 343 339 335 335 336 337 338 337 336 334 333 333 333 333 332 332 332 332 329 327 326 326 327 330 333 334 334 334 331 326 324 325 328 327 327 332 336 337 338 337 335 329 325 322 320 324 323 317 315 314 314 314 314 314 315 314 314 315 314 315 313 314 319 326 327 323 323 325 331 327 313 311 310 308 309 309 310 310 312 311 311 309
345 344 342 343 338 333 334 335 337 337 336 336 334 334 334 334 334 333 332 333 332 331 329 329 329 330 333 334 335 335 335 333 331 329 329 330 328 324 329 334 335 335 336 333 328 329 326 323 329 330 320 315 314 314 315 315 314 316 315 315 316 316 316 312 319 325 327 329 320 316 322 324 320 312 313 311 310 309 308 309 309 311 311 311 310
346 345 343 343 338 333 334 335 337 336 336 335 335 335 336 336 335 334 333 332 332 332 332 332 332 331 332 332 334 335 334 334 334 333 332 330 328 323 323 326 326 326 327 327 326 327 326 324 328 328 320 316 314 314 315 315 315 317 317 317 316 316 318 315 324 329 330 329 319 320 331 328 317 313 314 311 311 309 308 309 308 309 310 311 311
346 345 344 344 338 333 334 336 336 336 335 336 336 336 337 337 337 335 334 333 332 332 333 333 332 331 331 332 334 334 334 335 335 335 333 331 328 327 324 322 322 320 319 321 321 321 322 321 323 322 319 317 316 315 316 316 316 318 320 321 319 319 319 317 327 332 330 326 321 322 327 324 315 313 315 312 312 310 308 308 308 309 309 311 311
346 346 344 343 339 335 335 337 337 336 335 336 337 337 338 338 337 336 335 334 333 332 332 332 331 331 332 332 333 334 335 335 335 335 333 331 329 329 328 324 323 321 319 319 319 319 319 318 319 319 318 318 318 317 317 317 317 318 320 323 323 323 321 321 329 333 329 324 323 326 323 318 314 313 315 314 312 311 309 308 308 308 308 309 310
346 345 343 342 340 338 337 337 337 336 335 335 336 337 338 338 338 337 336 334 333 332 331 331 331 332 333 331 332 335 335 335 335 334 333 332 330 329 329 326 324 323 320 319 319 319 318 317 317 317 317 318 318 318 318 318 319 319 320 323 326 325 323 328 334 333 330 327 325 329 327 317 313 314 314 314 314 311 310 309 308 308 308 308 310
345 343 342 341 340 339 339 337 337 336 334 335 336 337 338 338 338 337 336 334 332 332 331 331 332 333 333 331 331 335 335 335 335 334 333 331 330 331 331 330 326 323 321 320 320 318 318 318 317 317 317 318 318 318 318 319 321 323 323 325 327 325 325 331 336 334 333 333 329 330 327 314 312 314 313 314 314 312 311 309 309 308 308 308 308
344 342 341 341 339 339 339 337 336 335 334 335 336 336 337 337 338 337 335 333 333 332 331 332 333 333 333 331 331 334 335 335 335 334 333 330 330 331 332 333 328 323 322 321 321 320 319 318 318 317 318 318 319 319 319 320 322 324 326 326 326 325 326 329 334 335 334 333 331 332 330 318 313 313 313 314 314 314 312 310 309 308 308 308 308
344 342 341 340 339 339 340 338 335 335 335 334 335 336 337 337 337 336 334 334 333 332 331 332 332 333 334 333 333 335 335 335 335 333 331 329 329 330 330 331 328 323 321 321 321 321 320 319 318 317 317 318 319 320 320 321 323 325 326 326 327 326 326 327 334 335 332 331 332 334 331 319 313 313 313 313 313 314 313 312 311 309 308 307 308
344 342 341 340 339 339 339 338 336 336 335 335 335 335 336 337 337 335 334 334 332 332 332 331 332 333 334 334 335 335 335 334 333 330 328 326 327 328 328 329 326 322 321 321 322 322 321 321 320 319 319 318 317 319 320 321 322 324 326 326 327 328 326 328 334 334 332 332 333 334 328 320 316 314 313 313 313 314 313 313 311 310 309 307 308
343 343 342 339 338 338 337 337 337 336 336 336 335 335 336 336 335 334 334 333 332 332 332 333 333 335 335 335 335 334 333 331 330 329 327 326 327 328 327 326 325 322 321 321 322 322 322 322 321 320 319 318 318 317 319 322 323 323 325 326 326 327 326 331 334 334 333 332 333 332 327 322 319 315 314 313 312 313 313 314 313 311 309 308 308
342 341 340 338 338 338 337 336 336 336 336 336 335 335 335 334 334 334 334 333 332 333 334 334 334 335 335 335 334 332 331 330 331 329 326 327 328 328 326 325 324 321 321 322 322 322 322 321 320 319 319 318 317 317 318 321 325 325 325 326 326 326 327 329 331 333 334 331 332 331 327 324 322 319 316 314 312 313 312 314 315 312 310 309 308
340 339 338 338 337 337 337 335 335 338 335 333 333 333 334 334 334 334 333 332 333 334 334 334 334 335 334 333 332 331 333 333 332 329 328 330 329 328 327 325 323 321 321 322 323 322 321 321 320 319 319 318 317 321 323 323 325 326 328 327 326 329 329 326 329 332 333 333 333 330 327 326 325 322 319 316 313 313 312 314 314 313 311 309 308
339 338 337 339 337 335 336 333 333 335 334 332 333 333 334 334 334 333 332 333 334 334 334 333 333 333 332 332 332 333 336 335 331 330 329 330 331 329 328 325 322 321 321 322 322 323 321 321 321 321 320 318 321 327 329 327 326 326 328 329 329 332 329 325 329 332 333 332 331 328 328 327 326 325 322 318 314 313 313 314 314 314 313 310 309
339 338 338 340 337 333 334 333 332 333 332 332 334 333 332 331 332 332 333 335 335 334 334 333 332 332 331 331 333 334 336 334 330 330 330 331 331 331 329 326 324 322 321 323 323 323 322 322 321 320 322 323 327 330 329 329 328 328 329 331 332 331 330 328 331 333 333 331 328 327 327 327 327 325 323 320 316 314 313 314 314 313 313 311 309
339 337 338 336 334 333 331 332 332 332 331 330 334 334 331 332 334 334 336 336 333 332 332 331 331 331 330 331 332 332 334 333 331 330 332 334 333 331 330 327 327 326 324 328 328 325 325 326 323 321 325 327 329 329 328 329 328 329 329 330 331 330 331 331 332 333 333 331 327 326 326 327 327 325 324 322 317 314 313 314 314 312 312 311 309
337 334 334 330 328 328 327 329 329 330 330 330 334 334 335 337 336 337 337 335 332 330 330 328 329 329 328 330 331 331 334 334 333 333 334 335 334 333 332 331 332 330 327 332 331 326 326 327 324 323 326 327 328 329 328 328 328 329 329 329 330 331 333 333 332 332 333 331 328 327 326 327 327 323 322 323 318 315 316 315 313 313 312 312 311
334 330 329 326 325 326 326 328 329 330 331 332 332 332 336 337 334 335 333 331 330 329 329 328 328 328 328 328 331 333 334 334 334 334 332 333 334 333 334 333 333 331 329 331 329 324 325 326 326 326 325 327 329 328 328 328 327 327 328 328 328 330 332 334 333 332 332 331 328 327 327 328 328 322 320 323 320 316 319 319 313 313 312 311 311
331 329 327 325 325 327 327 331 333 333 332 333 334 333 334 334 332 332 331 330 330 329 330 330 330 330 330 330 331 333 334 334 334 334 331 332 333 333 334 332 331 331 328 328 327 322 324 327 329 328 326 328 328 328 328 328 328 327 327 327 328 329 331 332 333 332 332 332 330 328 329 329 328 322 318 320 322 320 322 321 315 313 312 311 311
330 329 327 325 325 327 329 333 335 334 332 331 334 334 332 331 330 330 330 330 330 330 331 331 331 330 331 332 332 333 333 334 334 333 330 331 332 332 333 331 331 331 328 326 326 323 324 328 331 330 327 328 329 328 328 328 328 327 327 327 327 328 330 331 333 332 332 332 331 329 330 331 329 324 318 318 321 322 324 323 319 316 313 311 311
331 329 328 326 327 330 332 334 333 333 333 332 333 333 331 331 330 330 330 331 330 331 331 331 332 332 333 333 332 332 332 333 333 333 332 331 331 331 333 333 332 332 330 328 329 327 327 328 331 330 328 328 329 329 328 328 328 328 328 327 327 328 329 331 332 332 332 331 330 328 329 330 330 327 322 319 319 321 323 323 321 320 317 313 311
332 328 328 327 329 334 336 335 333 333 335 335 333 331 330 331 331 330 331 331 331 331 331 331 332 333 335 333 332 333 331 331 332 332 333 333 331 330 333 333 333 332 332 331 330 329 328 329 331 331 328 328 329 328 328 329 329 328 328 327 327 328 328 330 331 331 331 331 329 327 327 329 331 329 325 322 319 318 321 323 322 322 319 314 311
332 328 329 327 329 335 336 335 334 333 334 335 333 331 331 331 330 331 331 331 331 331 331 332 332 333 334 333 333 334 331 329 331 331 332 332 331 330 332 332 333 333 332 331 329 328 329 330 330 331 330 329 327 326 327 329 329 328 328 327 327 327 328 329 329 330 332 333 331 329 327 329 331 330 327 325 322 318 318 320 321 323 322 317 314
333 329 328 326 330 335 334 334 334 333 333 333 333 332 331 331 331 331 332 332 332 332 332 333 333 334 333 332 333 334 330 330 331 331 331 331 330 331 332 332 333 332 331 330 328 328 329 330 330 330 331 331 329 327 327 328 329 328 328 328 327 327 327 328 329 330 331 333 333 331 329 329 331 330 327 327 325 321 318 316 316 320 322 319 316
334 330 328 327 329 334 334 333 333 334 333 332 332 331 331 331 332 333 333 334 333 333 333 333 333 334 333 332 332 332 331 331 331 331 331 330 330 330 331 332 331 330 330 329 329 329 329 330 331 330 331 332 331 330 329 329 330 330 329 328 328 328 327 327 327 328 329 331 332 332 332 330 329 328 328 328 327 325 321 317 314 315 317 315 313
335 332 332 330 329 333 334 333 332 334 333 331 332 332 332 333 334 334 334 334 334 334 334 333 332 333 333 330 330 330 330 331 330 330 330 329 330 331 331 332 330 329 329 330 330 329 329 330 330 331 331 332 333 332 331 332 331 331 330 329 329 329 329 328 327 326 327 328 329 330 331 332 330 329 330 330 328 327 325 322 319 315 314 314 314
335 333 333 330 329 333 334 332 332 333 333 332 333 333 334 334 335 335 334 333 333 333 332 331 331 330 330 328 328 330 330 330 330 330 330 329 330 330 331 331 331 331 330 329 329 329 330 330 330 331 330 330 332 333 332 332 332 331 331 330 330 330 329 329 328 327 327 327 327 328 328 329 330 330 331 331 329 328 328 326 323 320 319 319 319
335 334 333 329 330 334 334 332 332 332 333 334 334 335 335 335 334 333 332 331 330 330 329 328 328 328 328 328 328 329 329 329 330 330 330 330 330 330 330 331 331 330 330 329 329 330 331 331 330 331 330 329 331 332 332 332 331 331 331 331 331 330 329 330 329 328 328 326 326 327 327 327 328 329 329 330 330 329 329 328 327 325 323 322 322
335 334 333 331 334 335 332 332 333 333 334 335 336 335 335 333 332 330 329 328 328 326 326 327 327 327 328 327 327 328 328 328 328 329 330 330 329 329 330 330 330 330 329 330 330 331 331 331 330 330 330 331 332 333 332 332 331 331 331 330 330 330 330 329 327 327 328 328 327 327 328 328 327 327 327 328 329 328 327 328 328 327 326 324 324
335 335 334 334 336 335 332 332 334 335 335 336 336 335 334 332 329 328 326 325 324 323 325 327 326 325 324 322 323 325 327 328 328 329 331 330 328 328 330 330 330 330 329 330 330 330 330 330 330 329 329 331 331 331 331 330 329 329 330 330 330 330 330 328 327 328 328 327 327 326 327 327 326 327 327 327 328 328 326 325 326 327 326 326 325
336 336 335 335 336 335 334 331 331 335 336 335 334 332 331 329 326 325 324 323 323 322 323 324 323 322 319 317 318 320 323 326 327 329 330 330 329 329 329 329 329 330 330 330 330 330 330 329 329 328 329 330 330 329 329 328 327 328 328 328 329 329 330 329 328 329 328 326 325 326 326 326 326 328 328 327 327 327 327 325 326 326 325 325 325
336 336 335 336 335 334 334 331 330 335 336 334 331 329 328 326 325 324 323 323 323 321 321 321 322 319 315 315 315 316 318 321 324 326 327 327 327 327 327 327 327 327 328 328 328 327 327 328 328 328 329 330 330 329 327 325 326 328 328 328 329 329 330 329 329 329 328 327 326 325 326 326 327 328 328 326 325 325 327 328 328 327 326 325 325
335 334 334 336 335 336 337 334 333 334 335 332 327 325 325 324 324 323 324 326 324 323 323 321 318 314 310 312 315 317 318 318 319 321 323 324 324 324 324 324 324 324 324 325 325 325 325 327 327 327 328 330 330 329 327 327 328 330 330 330 330 330 329 329 328 329 329 329 328 326 326 326 328 329 327 327 326 326 328 328 327 327 327 326 326
334 333 334 335 336 336 336 336 335 334 333 329 326 324 324 324 323 323 324 325 323 323 322 318 314 310 307 309 312 316 319 318 317 317 318 319 319 319 318 317 319 319 320 320 322 324 324 325 326 327 327 328 329 329 328 328 329 330 330 330 330 330 330 328 328 328 328 328 327 328 328 326 327 328 327 328 328 328 328 327 326 327 326 326 327
334 334 334 335 334 331 331 334 333 332 331 328 327 325 324 324 322 320 320 320 318 316 317 314 312 310 309 310 310 312 318 320 319 319 318 316 317 319 317 316 318 319 319 319 320 321 322 323 324 325 326 327 330 329 327 327 328 330 330 329 329 329 329 328 328 329 328 327 326 327 328 327 328 328 328 328 328 327 327 327 326 326 324 324 325
334 334 334 333 330 326 328 328 326 329 330 328 328 325 325 323 319 317 316 316 315 315 319 318 313 311 311 311 308 311 318 319 320 321 320 318 316 317 317 316 317 318 320 321 320 320 321 322 322 323 325 326 328 328 327 326 327 328 329 329 329 329 328 327 328 328 328 328 327 327 328 327 328 328 328 328 328 327 327 328 326 325 324 323 324
333 334 334 330 328 327 328 325 324 330 330 327 326 325 325 322 317 316 315 317 319 322 324 321 318 316 313 311 309 311 316 317 320 322 320 319 317 315 317 319 318 317 320 322 320 320 321 320 320 323 324 324 325 327 326 326 326 327 328 329 329 329 328 328 328 327 327 327 327 327 327 328 328 327 327 327 328 328 327 327 326 325 325 324 325
333 334 334 332 329 329 328 325 325 329 330 327 326 325 325 322 318 317 318 322 324 322 319 316 316 314 312 311 309 309 313 315 318 320 320 318 315 314 316 319 320 319 319 321 321 321 321 320 321 323 324 323 324 326 326 326 326 327 327 328 328 328 327 328 328 327 326 327 327 326 326 327 327 325 325 326 327 328 327 326 326 326 326 325 325
334 333 335 334 331 329 328 325 324 327 329 329 327 326 325 322 318 316 318 321 319 312 309 308 310 311 311 314 313 311 312 314 315 317 317 314 310 309 309 312 317 319 319 320 320 320 320 320 319 321 323 324 324 326 327 326 327 328 327 327 328 327 327 326 326 327 327 325 326 326 325 326 325 324 324 325 326 327 326 326 326 326 325 324 325
333 334 335 335 333 332 329 325 324 325 329 331 328 326 325 321 317 314 313 315 311 306 307 307 307 310 311 313 315 313 310 311 311 313 313 310 306 306 306 307 310 315 317 317 314 315 318 320 318 318 320 321 322 324 325 326 327 328 327 327 327 327 326 326 325 327 327 325 324 326 325 325 324 324 325 325 326 326 325 325 325 325 325 325 326
330 333 335 334 333 333 331 329 327 324 328 332 329 326 324 320 317 313 310 308 307 307 308 306 307 310 311 311 314 315 312 310 309 309 308 307 306 306 307 306 306 309 312 313 313 314 314 314 313 313 315 317 319 321 323 325 326 326 326 327 327 326 326 327 327 327 328 326 325 326 326 325 324 323 324 324 324 324 324 324 323 321 321 322 324
331 333 334 332 329 329 331 332 330 324 327 332 329 326 323 317 316 314 309 307 308 308 307 306 307 310 313 314 314 315 314 310 308 307 306 306 306 306 306 306 306 306 307 309 313 315 313 311 312 312 310 310 312 312 313 317 321 322 323 324 324 324 325 325 326 327 327 326 326 326 325 324 323 322 322 322 320 320 321 321 319 318 318 319 319
Wind_Speed
19 21 23 25 23 22 21 19 18 16 15 14 14 14 15 15 17 18 19 20 20 20 20 18 16 15 15 14 13 12 12 12 12 13 14 14 14 14 13 12 12 12 12 12 13 14 13 15 15 14 13 13 13 12 12 12 14 17 17 17 16 15 15 15 16 15 15 15 15 15 16 16 15 15 15 14 14 14 16 16 13 13 13 14 13
22 22 23 25 23 22 21 20 18 16 15 14 14 14 14 15 17 18 20 21 21 21 19 17 15 16 15 13 12 12 12 11 12 12 13 13 13 13 13 13 12 11 10 11 11 11 12 14 15 14 13 13 13 13 13 15 16 17 17 17 16 14 14 14 14 14 15 15 15 14 15 16 15 15 14 14 13 14 15 16 14 14 14 13 13
23 22 23 25 24 22 21 20 18 16 15 14 14 14 15 16 18 19 21 22 22 21 18 16 16 16 14 12 11 11 11 10 11 12 12 11 11 11 13 14 13 11 10 11 12 12 12 12 14 14 13 14 13 13 14 15 16 16 16 16 15 14 14 14 14 14 14 14 14 14 14 15 15 15 14 14 13 13 14 16 17 17 17 15 14
23 22 23 25 24 22 21 19 18 17 15 15 15 15 16 17 19 20 22 22 21 20 17 16 16 14 13 12 11 11 10 10 10 11 11 10 10 10 11 13 14 12 11 11 12 12 12 12 12 14 14 14 13 13 14 15 15 16 15 15 15 14 14 14 14 14 14 15 17 15 12 12 14 15 14 14 13 13 14 16 18 18 18 17 16
23 22 24 25 23 22 21 19 18 17 16 15 15 16 16 17 19 20 21 21 20 18 16 15 15 13 13 12 12 11 10 10 9 10 10 9 9 9 9 10 11 11 10 10 12 12 12 12 11 13 14 14 13 13 14 14 14 14 14 14 14 14 14 14 14 14 14 17 19 14 8 10 12 14 14 14 13 12 13 15 18 18 18 18 17
22 22 24 25 24 22 20 19 18 17 16 15 15 16 17 17 18 19 19 19 18 17 16 15 14 13 13 12 12 12 11 10 10 9 9 9 9 9 9 9 9 8 8 8 9 11 12 12 11 12 14 14 13 14 13 13 13 13 13 13 13 13 13 13 13 13 16 18 17 12 8 8 9 12 13 13 13 12 14 15 16 18 18 18 17
21 22 23 24 24 22 21 19 18 17 16 16 16 16 17 17 18 18 18 18 17 16 15 14 14 14 13 13 12 12 12 11 11 11 10 10 10 11 11 10 9 8 8 7 7 9 11 11 11 11 14 16 14 14 13 12 12 12 12 12 12 12 12 12 12 12 16 15 12 10 8 7 6 11 12 13 13 13 13 14 15 17 18 18 16
21 21 21 22 22 22 21 19 18 17 16 16 16 17 17 18 18 18 18 17 17 16 16 15 15 15 14 13 12 12 12 12 12 13 12 12 11 12 12 11 10 9 7 5 6 8 10 11 11 11 14 16 15 15 14 13 12 11 11 11 11 11 11 12 12 12 15 12 11 11 8 7 7 10 12 13 13 12 13 12 14 16 17 18 17
21 21 20 20 21 22 21 19 18 17 17 17 17 17 18 18 17 17 17 17 17 16 16 16 16 15 14 13 12 12 12 12 13 14 14 13 12 12 12 12 11 10 8 5 5 7 9 10 11 11 13 16 17 15 14 13 11 11 10 10 10 10 10 10 11 13 14 11 11 11 9 8 6 9 12 13 12 12 13 12 13 15 16 17 17
21 21 20 19 21 21 20 20 19 18 18 18 18 18 18 17 17 16 16 16 16 16 16 16 15 14 14 13 12 11 12 12 13 14 14 14 13 13 13 12 11 11 9 7 6 7 8 9 10 11 14 17 18 17 15 13 11 10 9 9 9 9 9 9 11 12 11 9 9 9 10 9 5 8 10 11 12 12 12 12 12 13 15 16 16
19 20 19 18 20 21 21 21 20 19 19 18 18 18 18 17 16 15 15 16 15 15 15 15 15 14 14 12 11 11 12 12 13 13 13 13 13 13 13 12 11 10 10 8 7 8 8 9 11 11 14 17 18 18 16 14 11 9 9 9 8 8 8 9 10 8 9 7 7 10 10 8 6 9 9 10 11 11 12 11 11 13 14 15 16
18 18 17 17 20 20 21 21 21 20 20 19 19 18 18 17 16 15 15 15 14 14 14 15 15 14 12 11 11 12 12 13 13 13 12 12 12 13 12 12 11 10 10 9 7 6 6 9 11 11 13 16 18 17 16 15 13 11 9 9 8 7 6 8 9 6 6 5 6 11 9 6 6 9 10 10 10 10 11 10 11 12 12 14 15
17 17 17 18 19 20 21 21 21 20 20 20 19 19 18 17 16 15 15 14 13 13 14 14 13 12 12 12 13 13 13 12 12 12 12 11 11 11 11 10 10 10 9 9 7 6 5 7 9 9 10 13 16 16 15 14 13 12 10 10 9 7 5 6 7 4 4 5 7 9 7 6 6 8 10 10 9 9 10 9 10 11 12 12 13
18 17 17 18 18 20 21 21 21 20 20 20 19 19 18 17 16 15 14 13 13 12 13 13 12 12 13 14 14 14 13 12 11 11 10 10 10 9 8 8 8 8 8 8 7 6 5 5 6 6 6 7 12 15 14 13 13 12 11 10 8 7 6 5 6 3 3 5 7 7 5 6 6 7 9 9 9 9 9 9 9 10 11 11 12
18 18 18 18 19 20 21 20 20 20 20 19 19 18 17 16 15 14 13 13 12 12 13 12 13 13 14 14 14 14 13 11 10 9 9 9 9 9 7 7 7 7 7 7 6 6 5 5 4 5 4 4 7 12 14 12 11 11 11 10 9 8 7 6 5 1 3 4 6 7 4 4 5 7 8 8 9 8 8 8 9 9 10 10 11
18 18 18 18 20 20 21 21 20 20 19 18 18 17 16 15 14 13 12 12 12 13 13 13 14 14 14 14 13 12 11 11 11 10 9 9 9 9 8 6 6 6 7 6 6 5 5 5 4 4 4 4 5 9 12 11 10 10 10 10 9 8 7 8 4 1 3 3 4 5 3 3 5 6 7 7 7 7 7 7 8 8 9 9 10
17 17 18 19 20 20 20 21 20 19 18 18 18 17 16 15 14 13 13 13 13 14 14 15 15 14 14 14 13 12 11 11 11 10 9 9 9 9 9 7 6 6 6 6 6 6 5 4 4 4 4 4 5 6 8 10 9 8 10 11 10 8 7 9 6 2 2 3 4 5 2 2 3 5 6 5 5 6 5 5 6 7 7 8 9
16 16 17 19 20 20 19 21 21 19 19 19 18 17 16 15 14 13 14 14 14 14 15 15 14 13 13 13 13 12 11 12 11 9 8 9 9 9 9 8 6 5 5 5 5 5 5 4 3 3 3 3 4 5 6 8 9 8 8 9 10 8 7 7 6 3 3 3 5 4 2 1 1 3 4 4 4 5 4 4 5 6 6 7 7
15 15 16 17 19 19 19 19 20 20 19 19 18 17 16 15 14 14 15 15 14 14 14 14 13 13 13 13 12 12 12 11 10 9 8 9 9 9 9 8 6 5 5 4 4 4 4 3 3 2 2 3 3 4 5 6 7 8 8 8 8 8 7 6 5 3 1 3 4 2 1 0 0 2 3 3 3 3 3 3 3 4 5 6 6
15 15 15 16 18 18 18 18 19 19 19 18 18 18 17 15 15 16 16 16 14 14 15 14 14 13 12 13 12 13 12 11 10 9 9 9 9 8 8 8 7 5 5 4 3 3 2 2 2 2 2 3 4 4 6 6 6 7 8 9 8 7 6 5 5 5 2 2 4 2 2 1 1 1 1 1 1 2 2 2 3 3 3 4 5
16 16 15 16 16 16 16 18 18 18 18 17 16 17 16 16 16 17 16 15 15 15 15 14 14 13 13 13 13 13 12 11 10 10 10 10 9 8 8 8 7 6 5 4 4 3 3 3 3 3 3 4 4 4 6 6 7 7 6 8 8 7 6 6 5 5 3 2 3 4 3 2 1 1 0 0 1 1 1 1 2 2 3 3 4
16 16 16 16 15 15 14 17 18 17 17 16 16 17 17 16 15 16 15 15 16 15 15 14 14 14 14 13 13 12 10 10 10 10 11 10 9 8 8 8 8 7 6 5 5 4 4 4 3 3 3 4 3 3 4 5 7 7 6 6 6 6 7 8 6 4 4 3 4 6 3 2 3 2 1 1 1 2 1 0 1 1 2 4 4
16 17 17 14 15 16 15 16 16 16 16 15 17 18 17 16 15 15 15 16 16 15 14 13 13 14 13 12 12 10 9 9 10 10 10 10 9 8 8 8 8 7 7 6 5 4 3 3 2 3 3 2 2 2 2 2 5 6 6 5 5 6 7 8 7 5 4 4 5 4 2 3 4 3 3 2 1 2 2 2 1 1 1 4 5
17 17 16 15 17 17 16 16 15 15 15 15 15 17 17 16 16 16 15 15 15 14 13 12 12 12 12 11 10 10 9 9 10 10 9 9 8 8 8 8 7 7 6 5 4 3 2 1 2 3 2 2 2 3 3 3 3 4 5 5 5 7 7 7 7 6 5 5 6 4 3 3 4 4 4 3 3 2 3 3 2 2 1 2 6
19 18 17 17 17 15 17 17 16 16 16 15 13 15 17 15 15 16 15 14 14 13 12 11 11 10 11 10 9 9 9 8 9 9 8 7 7 7 8 8 7 7 6 5 4 3 2 2 3 3 2 3 4 4 4 4 3 4 5 6 6 6 7 7 7 7 6 7 6 5 5 3 3 4 3 3 3 3 4 4 3 3 1 1 5
22 22 18 15 16 17 20 19 17 17 16 17 15 14 15 13 14 14 14 13 13 12 11 11 10 10 11 10 9 9 9 8 9 9 8 7 7 6 6 6 6 6 6 5 5 4 4 4 4 3 3 4 4 4 4 4 3 3 5 6 7 6 6 7 8 7 7 7 7 6 6 4 3 4 3 4 4 4 4 5 4 3 2 1 4
20 20 15 16 21 22 23 21 18 17 18 18 16 16 14 12 13 13 12 12 12 12 11 11 11 10 11 11 10 9 9 9 8 8 9 8 7 7 6 6 6 6 7 7 6 5 5 5 4 4 4 4 4 4 3 4 4 4 4 6 7 8 7 7 7 7 7 7 6 6 6 4 2 2 3 3 3 3 4 4 4 3 3 2 3
16 17 16 20 25 23 22 20 17 18 19 18 16 16 15 13 13 12 12 12 12 12 11 10 10 10 10 10 10 9 9 9 8 8 9 9 8 8 8 9 8 7 8 7 6 6 5 5 4 4 4 4 4 4 4 3 3 3 4 5 7 8 9 8 7 7 7 7 6 6 5 4 3 2 2 3 3 3 3 4 4 3 3 3 3
15 19 20 23 24 21 20 17 16 17 17 17 15 14 14 13 13 12 12 11 11 11 10 9 9 9 9 9 10 10 10 9 9 9 9 9 8 8 8 9 9 7 7 7 6 6 6 6 5 4 4 5 5 5 4 3 3 3 3 5 6 7 9 8 7 7 6 6 7 5 4 5 3 2 2 2 3 3 3 4 4 4 3 3 4
16 21 23 24 23 19 17 14 15 16 15 16 14 14 14 13 13 12 11 10 10 10 9 9 9 8 7 9 10 10 10 9 9 8 8 8 8 7 6 8 8 8 8 7 7 7 7 7 6 4 4 5 5 5 4 3 3 3 3 4 5 6 7 8 7 7 7 8 8 6 5 6 5 4 2 3 3 3 4 4 4 4 3 2 4
18 23 23 24 23 18 15 14 16 16 14 14 13 14 14 13 12 11 9 9 9 9 9 9 9 8 7 9 10 10 8 8 10 9 8 8 8 7 6 7 8 8 8 8 9 9 8 8 7 6 5 6 6 6 5 4 3 3 3 3 4 5 5 6 6 6 7 7 8 8 7 7 7 5 3 3 3 3 3 4 4 4 3 2 4
20 24 23 24 23 18 17 16 16 17 15 13 12 12 12 11 10 9 9 9 9 9 8 8 8 8 8 9 8 8 7 8 10 9 9 8 8 7 7 8 7 7 9 10 11 11 10 9 9 7 5 5 6 6 5 5 4 3 3 3 4 4 4 5 5 6 6 6 7 8 9 9 8 6 4 3 2 2 1 3 4 4 3 3 4
20 25 24 25 24 19 19 18 16 16 14 13 12 11 10 8 8 8 8 9 9 8 8 8 8 7 7 7 7 7 7 8 9 9 9 8 8 8 7 8 8 8 10 11 12 12 11 10 9 8 6 5 5 5 5 5 5 4 4 4 4 4 5 4 5 6 6 6 6 7 8 8 8 6 5 3 1 1 1 1 3 4 4 3 2
19 24 24 26 26 20 19 19 16 15 14 13 11 10 9 8 8 8 9 9 9 8 7 7 7 6 6 6 5 6 6 6 8 8 9 9 8 8 8 8 8 9 10 11 11 12 11 8 7 7 6 5 5 5 4 5 5 4 5 4 4 5 6 5 6 6 6 6 6 6 6 7 8 8 7 4 2 0 1 1 1 3 4 2 1
17 21 21 24 26 22 19 19 17 15 13 12 11 10 9 9 9 9 9 9 8 7 6 6 6 5 5 5 4 5 5 5 7 7 8 9 8 8 8 7 8 8 8 9 10 10 9 7 7 6 5 5 5 5 5 5 5 5 6 5 5 6 5 7 8 7 7 7 7 7 7 7 8 8 8 7 4 2 2 2 3 3 3 2 1
18 18 19 23 26 22 18 18 17 16 14 12 11 10 10 10 9 8 8 7 5 4 4 4 4 5 5 3 3 3 4 4 5 7 8 9 9 9 8 6 6 6 6 8 8 8 7 6 6 6 7 6 5 5 5 5 6 5 5 5 5 6 5 6 8 8 8 9 8 9 9 8 9 9 10 9 6 3 1 3 4 5 4 4 3
18 19 19 23 23 19 17 17 17 17 15 14 13 12 11 10 8 7 5 4 3 2 2 2 3 4 3 2 2 2 3 3 4 6 7 8 8 8 8 7 6 6 6 7 7 6 5 5 6 7 8 7 5 5 5 5 5 5 5 5 5 6 6 6 7 7 7 8 9 10 9 10 11 12 12 10 7 5 2 2 4 5 5 5 5
17 20 20 21 20 17 17 17 17 17 16 15 14 13 11 9 7 6 5 5 4 3 2 2 2 1 1 1 1 1 2 2 3 4 4 6 7 7 7 6 6 6 5 5 5 5 5 5 6 7 8 7 5 5 5 5 5 5 5 6 6 6 7 8 8 7 7 7 9 10 10 11 13 13 12 12 10 7 4 2 1 4 4 4 3
17 19 20 20 18 17 19 19 18 17 17 16 14 13 11 9 8 7 6 6 5 5 4 3 2 2 1 1 1 0 1 1 2 2 3 4 6 6 6 5 5 5 4 4 4 4 5 5 6 8 8 7 7 7 7 7 6 6 6 6 6 6 7 8 8 7 7 8 9 10 10 12 13 12 12 12 11 8 7 6 4 1 0 0 1
17 18 19 19 19 19 20 21 20 18 17 17 15 12 10 9 8 8 8 8 7 6 6 5 3 2 2 1 1 1 0 0 1 2 3 3 3 4 4 4 3 3 3 3 4 4 4 5 7 8 7 8 9 9 9 8 7 7 8 7 7 7 6 6 7 6 8 9 10 10 10 11 12 12 12 10 8 8 6 7 7 6 5 6 3
18 19 18 17 19 21 21 23 22 19 18 17 14 12 10 10 9 9 10 9 7 7 7 6 5 3 3 3 3 3 2 2 2 2 2 2 3 3 3 2 1 1 2 2 3 3 2 3 6 7 7 7 7 8 7 7 6 6 7 7 7 6 6 6 5 5 7 8 10 10 10 11 11 11 9 5 5 7 6 6 7 7 7 8 7
18 19 18 17 20 20 19 21 22 19 17 15 14 13 11 11 10 10 10 9 7 7 6 6 5 3 4 5 5 5 4 3 3 3 2 2 2 2 2 3 3 3 3 3 3 3 2 2 3 4 5 6 6 6 6 6 5 5 5 5 6 6 6 6 5 6 6 6 6 7 8 9 8 8 6 1 1 3 3 3 4 5 7 7 7
17 17 17 18 19 18 15 17 18 17 15 14 14 14 13 10 10 10 10 10 8 8 8 6 4 4 5 6 6 6 6 5 4 4 3 2 1 0 1 2 2 1 1 2 3 3 2 2 2 3 2 3 5 5 6 7 5 5 6 6 5 5 7 6 6 7 6 5 4 3 5 6 6 7 6 2 0 1 1 1 3 4 5 7 7
15 15 16 15 16 15 12 13 17 15 15 15 14 14 14 11 10 10 10 9 9 9 8 6 6 6 7 6 7 8 7 6 6 5 4 4 3 2 1 1 1 1 1 0 1 2 2 2 2 2 2 2 3 4 5 7 7 6 5 5 5 5 5 4 5 6 5 5 4 2 4 4 4 6 5 2 2 3 2 2 4 4 4 6 6
14 14 15 14 14 16 12 13 18 17 16 16 14 15 14 12 11 11 10 10 9 9 8 6 7 7 7 7 6 8 8 7 7 6 5 5 4 3 2 2 3 3 2 1 1 1 1 1 1 1 2 2 3 4 3 4 7 7 5 5 5 5 3 2 4 5 5 5 3 2 3 3 4 5 3 4 4 4 3 4 5 5 6 6 6
14 14 16 15 16 17 15 16 18 17 17 17 15 15 13 10 10 11 11 11 10 9 7 7 7 7 7 7 7 8 8 7 7 6 5 5 4 4 4 3 4 4 3 2 1 1 1 1 1 1 1 2 3 4 3 3 5 6 7 6 5 4 3 2 4 4 4 4 4 3 2 1 3 5 3 1 1 3 4 5 6 5 5 6 6
15 16 17 18 18 17 17 19 18 16 15 16 15 14 12 10 10 11 11 12 11 9 8 8 8 8 7 7 7 8 8 7 7 6 6 6 6 6 5 5 5 4 3 2 2 0 1 1 1 1 1 1 3 3 3 3 3 4 5 5 4 5 5 4 5 3 3 3 4 4 3 1 3 5 4 1 1 1 3 3 3 4 4 4 5
16 16 17 19 19 18 19 21 19 16 13 13 14 14 12 11 12 12 12 12 11 10 9 8 9 8 8 8 8 8 8 7 7 8 7 7 8 8 7 7 6 5 4 3 2 1 1 1 1 1 1 1 1 1 1 2 2 3 3 3 3 5 4 4 5 4 2 4 5 3 3 3 3 3 3 2 1 1 1 2 3 4 3 3 2
20 16 16 19 21 20 21 21 18 16 13 11 13 15 12 12 12 12 12 13 12 10 9 8 9 9 9 10 9 8 8 9 10 10 10 10 11 11 10 10 9 8 6 4 4 4 4 2 1 1 1 1 1 2 2 2 1 1 1 1 2 2 2 2 3 3 3 5 6 4 3 2 1 1 0 1 1 1 2 2 3 4 3 1 2
24 20 17 17 18 18 16 18 17 15 14 11 12 14 13 13 13 11 11 12 12 10 9 9 9 10 10 10 10 8 8 10 12 12 11 11 12 12 12 11 11 10 8 7 8 7 6 4 3 3 2 2 2 1 2 2 3 3 3 2 1 0 1 1 1 2 3 4 5 6 5 4 5 4 2 2 2 2 2 3 4 4 4 3 3
17 17 16 12 13 14 11 13 16 16 15 13 12 14 14 14 13 11 11 12 11 10 9 10 10 11 11 10 10 9 10 11 12 12 11 11 12 12 12 11 11 11 10 10 9 8 8 7 6 5 4 4 3 2 2 2 3 3 4 4 2 2 2 2 2 1 1 2 3 5 6 6 7 7 5 6 7 6 5 5 5 5 4 3 3
Wind_Direction
168 176 167 168 166 166 166 163 164 159 154 146 143 139 141 145 152 159 160 158 154 153 150 147 142 139 135 133 132 135 136 134 137 143 150 149 146 143 141 141 149 162 169 169 156 151 151 144 136 134 132 125 119 112 103 102 104 102 98 96 93 89 86 83 82 79 79 81 80 80 81 83 85 85 85 82 78 71 70 71 58 47 56 67 79
164 173 167 168 167 167 166 165 165 159 155 148 145 139 139 139 146 154 157 156 154 155 153 149 144 142 138 136 136 139 139 137 140 147 155 156 154 149 144 143 144 153 167 177 172 160 154 150 143 139 136 130 122 115 111 109 106 102 100 98 95 91 88 87 88 85 81 80 80 80 80 81 82 83 85 83 79 74 70 73 70 58 56 66 78
160 169 166 168 167 167 167 166 164 159 157 150 145 140 138 137 143 150 154 155 157 158 155 152 147 144 140 139 140 141 140 138 143 149 156 159 159 154 148 145 144 153 162 172 178 171 163 158 148 143 139 132 125 119 118 113 109 107 105 100 96 94 91 90 90 90 86 85 84 78 75 77 79 80 81 81 78 74 69 68 67 60 57 64 79
159 167 165 168 166 168 168 166 165 161 158 150 145 141 139 138 143 149 154 158 159 160 157 153 147 145 143 142 142 139 138 136 141 149 155 158 158 156 152 147 149 161 166 168 176 175 169 165 154 149 142 134 128 126 124 117 114 112 108 103 98 94 91 89 89 89 88 86 79 71 64 66 74 76 76 78 76 72 69 65 64 59 57 61 71
159 165 164 166 164 168 169 168 167 163 159 151 147 142 139 139 144 150 156 160 160 162 159 154 150 150 147 143 137 134 132 130 134 145 153 156 156 152 151 148 147 155 159 164 175 174 171 168 161 155 145 138 133 132 130 123 119 115 112 107 102 98 95 91 88 88 89 85 80 76 63 56 63 72 75 77 76 73 70 65 61 58 58 59 61
158 162 163 165 164 167 169 171 169 166 161 154 149 143 141 140 144 149 155 159 161 163 160 157 154 150 143 136 129 126 125 124 125 134 147 154 152 142 137 134 131 131 133 148 168 170 171 173 169 161 150 144 140 138 135 128 124 120 117 111 107 102 97 94 90 90 89 82 81 86 76 58 54 67 74 76 76 72 70 67 62 59 57 58 61
156 159 164 166 165 167 169 172 172 169 163 157 152 147 143 142 143 146 151 155 157 158 156 154 149 142 135 130 127 126 126 127 127 128 136 145 145 134 129 127 123 123 125 127 145 161 171 173 172 168 156 151 148 144 139 133 130 126 121 116 111 104 102 98 92 92 89 83 82 88 87 82 59 59 67 72 74 71 70 68 66 63 60 60 63
157 158 163 167 168 169 171 173 173 172 166 160 155 151 147 144 144 145 148 151 152 152 150 148 144 138 133 131 132 134 135 135 132 128 127 131 136 137 135 135 133 134 139 127 128 152 166 170 173 174 162 157 154 151 147 141 138 131 125 121 115 109 105 98 93 89 84 84 92 90 81 76 62 56 61 67 69 72 74 71 69 66 63 61 62
159 160 163 168 172 170 171 174 175 173 169 164 158 153 149 146 145 145 147 149 150 149 148 147 143 137 135 137 139 141 142 140 135 130 124 123 129 139 144 145 143 143 146 137 135 149 159 168 172 175 165 160 159 157 155 150 147 139 132 126 120 115 106 100 97 89 79 76 87 93 92 78 53 53 60 64 65 66 69 69 71 69 66 63 63
160 164 165 169 174 171 171 175 176 175 171 166 159 155 150 147 146 146 148 148 149 148 149 146 141 138 139 141 143 145 144 142 138 131 124 121 125 137 150 151 149 147 145 146 163 162 157 162 166 172 165 164 165 162 161 158 156 148 141 134 127 119 110 105 93 83 80 78 83 91 103 105 74 56 60 63 65 64 66 65 69 70 69 67 67
161 164 166 173 173 170 172 175 176 174 170 165 161 158 153 150 148 148 149 149 149 148 148 146 142 141 141 142 142 144 144 143 139 132 123 120 123 133 149 158 159 158 160 167 179 172 159 160 162 172 168 167 170 167 165 164 163 159 153 146 140 127 119 112 94 78 80 79 87 83 78 84 71 63 65 66 66 68 71 68 68 69 69 68 68
159 161 168 172 170 170 173 175 175 172 168 165 162 159 155 153 151 151 151 151 151 149 150 149 147 146 145 142 139 141 146 146 140 134 125 122 124 128 142 153 160 162 169 177 180 177 169 171 171 178 174 167 170 173 170 169 169 168 166 156 153 142 129 113 94 73 85 87 85 85 74 63 57 63 68 70 68 67 71 70 68 69 69 70 70
155 158 166 164 166 170 173 174 174 171 167 165 162 160 157 156 155 154 154 155 154 153 154 154 151 150 151 145 143 146 148 148 143 136 127 125 125 128 139 145 151 150 155 165 169 171 168 177 181 186 181 169 169 172 174 175 173 174 175 162 159 151 140 119 101 81 91 101 85 86 98 88 63 66 70 69 69 68 70 70 70 69 70 71 70
150 153 160 159 161 166 172 174 173 172 169 168 165 163 160 159 158 156 157 157 157 158 158 158 158 157 155 152 155 155 151 149 142 135 129 126 127 132 140 141 144 141 142 151 158 165 161 165 177 186 183 172 169 167 171 180 179 181 182 168 162 156 148 108 90 105 93 96 93 82 84 86 74 73 71 66 67 69 70 69 72 72 71 72 73
150 155 159 158 159 162 170 173 174 174 173 172 169 167 165 164 160 157 159 159 161 162 162 163 163 161 160 160 161 160 156 153 145 141 136 129 130 133 137 135 133 128 127 132 142 153 157 156 160 176 179 174 168 164 167 177 179 179 183 174 163 162 157 112 76 115 89 76 94 88 80 93 91 81 72 66 66 68 71 71 74 74 72 74 76
157 161 159 159 159 160 167 171 174 174 173 172 170 170 167 165 161 159 161 162 165 164 165 168 167 165 164 161 160 162 158 156 152 150 143 134 134 136 138 134 128 124 119 119 123 129 140 150 157 170 180 178 170 169 166 171 175 169 172 171 163 163 155 132 120 146 88 78 93 87 97 115 107 96 82 71 64 66 73 74 77 78 76 75 76
158 162 159 160 159 159 165 168 170 171 171 172 173 172 166 165 164 165 166 166 167 167 171 171 169 167 163 158 159 162 157 158 158 156 150 143 142 145 147 141 137 133 124 120 115 115 122 133 149 163 182 184 181 183 171 169 175 173 167 167 167 164 155 137 126 146 137 124 100 82 97 113 112 111 95 83 70 66 72 77 80 82 83 81 79
157 161 159 159 159 160 164 166 169 171 173 175 176 173 169 169 171 173 172 169 170 173 175 172 168 164 159 157 160 162 159 163 164 160 154 148 146 148 150 148 151 146 134 127 118 116 115 118 130 146 177 193 198 204 194 178 176 182 176 171 169 163 166 143 122 168 173 110 90 96 132 99 103 119 100 95 82 67 65 76 86 84 87 89 86
156 159 159 160 161 163 166 169 171 173 176 179 177 175 175 175 178 179 174 170 171 174 172 167 163 161 159 158 161 161 159 162 161 160 153 145 144 147 152 153 158 158 145 136 125 121 117 120 130 142 170 192 214 221 227 215 191 184 181 182 177 168 169 147 134 164 151 98 99 129 178 49 200 136 99 96 93 74 58 60 87 96 91 91 94
155 153 156 160 160 163 167 170 173 176 178 180 179 177 179 179 182 179 172 169 169 169 167 163 159 159 161 159 158 155 154 157 158 159 153 146 146 150 157 158 162 164 159 153 145 138 139 155 167 184 194 201 216 224 233 238 227 205 187 186 186 180 174 166 159 146 157 139 127 209 297 13 235 119 89 81 88 78 60 50 73 108 106 92 94
154 151 154 155 156 161 165 169 171 172 175 177 177 180 181 181 180 174 170 169 167 166 163 159 156 156 156 154 155 155 157 160 161 160 156 153 155 159 160 163 168 169 171 172 172 176 184 197 201 209 220 224 229 239 243 242 242 233 207 188 182 188 194 197 181 149 172 142 143 241 306 9 309 16 64 349 15 350 42 52 57 98 124 111 100
152 153 155 153 154 159 166 172 166 162 168 171 173 176 174 174 174 168 168 167 162 158 155 153 151 150 151 155 160 159 157 161 165 163 161 162 165 168 167 169 172 173 178 181 183 191 201 210 216 223 234 244 247 251 255 257 250 240 229 200 180 190 204 207 197 175 179 148 189 246 322 359 330 343 293 310 302 315 336 341 14 54 129 142 127
154 154 152 150 157 164 169 173 168 162 163 169 173 168 165 168 168 165 165 160 152 149 150 149 149 151 154 158 159 154 153 164 169 169 173 176 177 177 174 175 176 175 178 183 191 197 209 216 219 224 238 253 243 207 195 240 259 246 236 212 187 196 204 205 195 188 196 188 212 248 336 340 341 341 307 307 300 319 304 276 303 303 116 152 153
156 154 152 155 158 165 168 164 167 166 162 173 174 163 164 166 163 162 159 152 147 148 148 147 150 155 158 157 154 156 157 169 178 181 188 189 188 185 180 179 175 176 172 173 191 203 210 227 235 231 225 219 207 201 186 204 233 233 227 210 200 202 198 200 194 188 201 216 235 263 299 322 344 340 321 310 304 310 284 270 271 270 306 157 162
161 159 157 158 154 159 168 164 167 167 164 174 173 159 161 161 156 155 150 148 149 150 148 148 154 159 162 160 164 169 161 173 189 190 193 191 197 197 191 183 172 176 168 161 182 194 197 221 237 229 209 202 200 202 196 204 221 219 216 210 211 211 198 197 198 193 200 222 240 265 283 299 334 340 322 300 304 299 279 268 263 261 287 163 165
171 168 164 166 161 165 174 169 169 171 166 173 176 164 158 156 154 150 147 149 149 149 150 154 161 164 170 172 177 178 169 180 194 192 189 188 203 206 203 192 174 179 172 170 194 197 199 210 214 209 205 206 204 206 202 202 213 225 225 217 215 214 204 203 206 196 199 225 239 259 274 276 305 338 321 295 302 297 275 263 268 265 256 220 172
175 175 174 177 171 172 175 168 171 177 172 174 176 170 163 161 158 153 151 149 146 148 151 158 164 167 175 180 183 181 178 186 193 195 191 188 200 202 205 198 182 187 182 182 200 201 203 209 207 203 206 203 200 203 208 204 197 210 228 223 218 216 210 204 207 200 200 221 231 245 260 260 264 327 326 293 294 294 266 256 265 262 245 229 185
176 182 178 177 176 174 172 167 173 178 174 174 174 170 168 165 159 154 154 149 148 151 155 161 166 170 176 184 187 184 185 190 193 200 195 190 198 198 204 201 190 196 194 188 197 202 204 211 210 202 198 196 194 192 193 203 198 201 218 225 221 221 221 212 204 205 204 216 225 230 246 253 246 292 325 292 273 262 242 246 252 251 245 221 197
177 185 178 178 179 175 172 172 176 175 170 171 173 170 168 165 160 157 155 151 152 157 163 168 173 179 186 194 194 192 192 194 200 206 202 201 205 201 204 203 194 196 199 194 196 202 204 206 207 198 195 193 194 197 188 187 199 199 207 221 221 218 225 224 210 206 205 212 221 224 240 257 255 260 309 308 270 241 222 232 234 231 237 222 206
183 187 180 177 178 174 175 177 177 173 163 164 170 170 168 166 163 160 157 156 162 169 174 181 186 189 201 209 211 213 204 199 209 211 206 210 212 205 207 207 201 197 195 195 199 203 205 205 201 193 192 185 191 203 191 183 194 199 202 213 218 215 223 228 219 215 218 222 227 232 244 258 263 261 284 316 292 254 219 217 226 218 216 221 212
187 187 180 175 176 173 170 173 177 174 164 163 167 166 166 165 162 160 159 167 176 182 186 194 199 199 213 220 224 229 216 210 217 213 209 211 210 209 207 208 207 201 195 198 203 201 202 207 203 196 191 181 192 204 190 187 196 200 204 203 212 215 220 225 222 223 223 223 232 241 245 250 258 255 261 301 314 288 229 209 216 211 208 207 198
187 187 182 176 177 175 172 174 178 177 172 169 166 163 165 164 161 160 168 183 189 194 198 206 214 217 227 228 226 230 225 228 231 225 223 214 206 211 206 203 206 206 204 203 205 203 202 206 204 202 200 191 199 205 194 195 201 201 203 206 212 215 222 226 222 224 217 210 227 242 241 237 243 246 245 265 307 322 263 216 211 204 221 222 195
184 187 184 180 181 180 178 179 179 178 176 175 170 168 169 167 170 177 186 197 200 204 211 219 225 226 231 227 218 224 224 229 234 231 226 214 206 212 205 199 205 210 212 209 207 210 209 205 204 206 207 203 203 205 202 207 214 212 209 209 216 218 221 229 227 226 220 205 214 241 246 234 228 229 231 234 246 316 42 224 207 199 213 217 204
182 189 187 183 185 184 182 181 181 179 178 180 175 173 176 179 189 194 197 205 210 212 218 227 225 215 219 217 214 230 228 219 224 222 217 213 213 213 204 203 215 216 214 212 211 216 215 208 211 212 208 205 207 212 208 215 226 225 220 212 220 230 220 224 231 234 235 219 210 225 243 247 234 226 230 225 193 152 89 89 115 174 196 187 182
182 190 188 186 188 187 185 182 182 183 183 185 178 178 183 189 199 202 200 205 211 211 215 222 212 202 215 226 225 236 239 225 219 218 219 219 213 210 207 208 220 220 216 215 218 224 222 215 216 210 209 210 209 219 216 215 221 222 228 218 216 231 224 228 233 231 238 236 229 224 222 239 242 229 229 229 204 150 85 82 90 104 133 130 86
186 186 184 186 189 190 188 183 186 186 185 188 182 184 189 191 198 201 201 201 200 204 218 221 213 220 227 231 227 225 237 233 216 218 224 223 214 210 212 215 218 220 222 222 226 234 228 223 218 202 209 214 206 220 220 217 219 217 228 224 219 228 224 236 238 228 232 235 236 235 232 239 246 236 225 228 233 211 123 66 73 81 86 83 68
190 189 186 188 189 188 186 184 191 191 187 188 185 186 188 188 188 187 186 177 173 192 237 238 227 241 235 201 212 222 240 243 230 226 224 222 221 220 221 222 224 224 224 225 232 242 236 232 227 208 208 213 212 224 225 223 225 224 227 219 218 221 212 225 234 230 235 240 239 239 243 245 248 249 236 227 232 215 168 72 65 69 69 72 67
190 192 191 192 187 182 187 191 193 192 189 187 182 180 178 174 170 163 155 147 157 173 181 200 202 224 228 205 212 225 237 235 241 241 229 225 223 225 230 233 238 236 230 227 234 245 237 229 235 225 216 216 222 223 222 224 221 222 229 221 215 214 213 221 227 232 234 236 241 239 243 248 248 256 253 237 230 220 212 232 63 70 70 77 89
188 189 191 193 185 182 191 194 193 192 187 180 173 171 166 159 154 149 148 148 157 163 159 162 165 181 224 243 226 219 257 226 225 212 198 221 216 214 233 249 250 246 246 246 245 246 234 225 232 233 227 225 227 224 219 221 219 219 220 218 216 215 219 222 218 221 226 227 236 238 240 250 252 254 257 248 238 232 223 232 252 245 218 277 125
186 185 190 191 185 185 186 186 190 189 180 173 169 164 156 153 152 153 152 147 150 156 158 156 155 176 188 181 168 169 176 161 189 162 154 185 186 183 214 246 248 240 248 250 246 245 240 235 236 239 238 236 235 233 227 224 230 237 231 226 228 229 230 228 216 213 226 228 228 233 237 247 252 250 250 249 250 251 231 224 235 227 236 258 262
185 183 186 185 184 186 182 181 183 183 177 170 161 154 150 153 154 158 153 144 151 160 160 158 157 171 159 141 139 138 145 149 138 115 116 135 138 146 167 185 198 210 234 247 259 266 260 243 242 240 234 236 241 238 233 228 228 241 246 245 245 244 243 236 224 218 231 234 227 230 237 243 253 257 253 237 243 258 246 232 231 220 230 247 254
186 183 181 181 184 184 180 179 177 176 175 163 149 147 146 149 150 150 146 137 142 149 150 156 157 156 137 130 127 121 124 128 131 133 132 142 151 169 185 193 205 213 231 259 276 289 290 260 260 251 228 227 240 240 235 227 225 239 246 251 251 250 251 246 237 228 229 242 243 241 245 247 253 268 279 271 197 262 260 262 259 239 237 244 251
188 184 182 184 182 178 176 176 173 170 166 153 149 149 142 137 138 138 139 137 142 148 151 155 141 125 122 122 123 122 117 112 114 125 136 144 148 199 252 230 221 213 233 269 273 281 286 275 279 276 245 222 230 240 235 220 217 238 241 244 245 245 253 255 249 241 234 235 235 234 253 260 259 266 283 316 146 255 251 281 288 271 250 246 249
190 183 186 187 174 177 180 169 164 161 159 158 155 149 141 134 130 131 136 139 146 149 148 144 129 119 116 111 115 116 110 108 105 101 104 108 113 104 50 77 84 88 110 195 256 261 264 257 264 271 267 220 213 232 231 215 211 222 238 246 241 241 253 254 242 238 244 244 228 213 241 252 263 269 276 263 241 253 256 266 275 274 258 255 260
192 183 188 186 173 182 190 173 165 159 160 167 158 146 142 136 129 129 132 135 139 138 134 132 124 118 117 112 110 109 107 107 102 95 95 95 106 117 95 89 100 112 118 110 173 218 212 209 229 252 262 250 234 244 237 215 214 213 226 243 238 237 244 255 239 217 217 231 204 193 243 245 255 265 265 248 255 266 258 258 263 261 262 268 274
195 187 186 185 181 186 190 188 182 171 167 167 153 141 139 129 122 126 132 138 138 137 141 138 127 124 123 118 111 108 110 112 106 99 95 93 99 109 104 88 90 112 129 124 147 195 197 173 149 182 249 243 235 251 256 236 226 219 221 228 226 225 218 246 252 204 191 224 202 187 211 289 253 238 223 225 284 278 259 265 274 271 268 271 278
192 185 186 187 186 182 185 193 192 184 176 162 145 138 137 127 119 125 134 141 143 146 150 142 133 132 124 116 113 112 114 112 111 106 98 96 94 98 108 101 89 97 108 104 105 120 190 182 169 154 146 214 215 233 253 243 234 229 224 219 225 235 230 234 237 193 154 199 217 218 212 223 254 233 219 214 50 301 274 284 292 285 283 281 283
193 184 189 191 187 179 184 193 192 190 183 162 148 141 139 134 130 134 136 142 148 146 142 134 131 130 120 117 115 114 116 114 115 111 101 95 90 86 92 94 90 83 72 69 81 87 99 121 165 166 151 168 168 145 234 237 220 225 230 230 245 252 243 232 234 220 165 189 208 213 217 225 244 237 233 250 266 291 306 332 318 314 307 288 276
210 201 199 199 192 184 188 193 193 191 184 171 159 148 141 140 140 141 140 142 144 139 136 133 129 126 122 123 122 115 116 118 119 115 104 98 93 87 85 85 88 88 79 68 81 97 100 93 110 152 174 179 147 102 83 71 102 167 215 242 255 282 296 283 254 232 204 216 206 171 156 165 106 83 223 269 271 281 322 353 353 351 2 44 88
220 221 220 215 197 187 193 195 195 195 188 183 170 156 147 146 146 143 140 141 139 136 137 134 129 129 126 125 123 118 117 120 120 116 110 106 102 96 90 87 86 88 88 82 81 91 99 100 112 128 153 171 183 156 105 81 87 111 108 91 88 21 344 343 328 229 203 211 187 148 135 119 98 90 95 84 71 64 35 46 47 35 36 47 67
210 217 220 214 191 191 210 206 199 199 194 191 181 166 154 148 146 140 139 140 136 134 133 131 132 134 132 130 127 126 126 124 120 117 116 113 108 103 97 92 88 87 89 89 87 87 87 83 79 77 77 81 81 83 103 107 95 97 97 88 72 61 55 37 29 10 190 177 152 134 129 122 109 100 97 93 84 76 70 65 60 56 58 52 48